sat.trackr.live / text

‹ back to catalog

EXPRESS-AM5

NORAD 39487 · 2013-077A

PAYLOAD ACTIVE UNKNOWN

§ Identity

Operator
Country
CIS
Launch date
2013-12-26
Launch site
TYMSC
Launch vehicle
Mass (kg)
RCS (m²)
50.12

Purposes: comms

External: N2YO · Heavens-Above · Gunter

§ Orbital elements

Epoch: 2026-09-19T21:03:27.808416Z

Period
1,436.09 min
Inclination
0.0304°
Eccentricity
0.0002128
Mean motion
1.00272070 rev/d
Perigee alt
35,777.5 km
Apogee alt
35,795.5 km
Semi-major
42,164.7 km
B*
0.0000e+0
RAAN
252.5902°
Arg perigee
235.2818°
Mean anomaly
326.8117°
Rev number
4,730

§ Raw data

EXPRESS-AM51 39487U 13077A   26262.87740519 -.00000284  00000+0  00000+0 0  99912 39487   0.0304 252.5902 0002128 235.2818 326.8117  1.00272070 47308

JSON: /api/v1/satellites/39487 · /tle

For live sub-satellite position, see the globe view (requires WebGL).

§ Visibility from observer

Set your observer location to see the next 7 days of passes ≥ 10°. The values pass through the URL so the page stays shareable.

No JS? Fill the form by hand. The geolocation button needs JavaScript.